Notices

What's New in latest Release from April 7th, 2021:

- Updated Glossary, including Speed of Maximum Gust, and Total Hourly Precipitation

- Updated national and regional climate services offices contacts and prices information

- Addition of station inventory lists for 1981-2010, 1971-2000, and 1961-1990 Normals.

If you haven't already, please take our survey and provide feedback about our website: https://eccc.sondage-survey.ca/f/LanguageSelection.aspx?s=442ca660-fcf1-47c0-95a9-59707d6fd709

Hourly Data Report for September 23, 2017

VICTORIA UNIVERSITY CS
BRITISH COLUMBIA

48°27'25.200" N
123°18'16.600" W
60.10 m
1018598
71783
WYJ

Download Data

Hourly Data (September 2017)
Hourly Data Report for September 23, 2017
TIME
LST
Temp Definition
°C
Dew Point Definition
°C
Rel Hum Definition
%
Precip. Amount Definition
mm

Wind Dir Definition
10's deg

Wind Spd Definition
km/h
Visibility Definition
km
Stn Press Definition
kPa
Hmdx Definition


Wind Chill Definition


Weather Definition


00:00 14.0 6.0 58 0.0 25 4   100.90     LegendNANA
01:00 12.1 9.1 82 0.0 3 1   100.93     LegendNANA
02:00 11.5 9.8 89 0.0 0 1   100.96     LegendNANA
03:00 12.7 9.0 78 0.0 26 2   100.95     LegendNANA
04:00 12.1 9.3 83 0.0 24 3   100.94     LegendNANA
05:00 11.1 8.6 84 0.0 25 2   100.97     LegendNANA
06:00 10.3 8.1 86 0.0 0 1   101.01     LegendNANA
07:00 10.5 9.0 91 0.0 9 2   101.09     LegendNANA
08:00 12.6 10.0 84 0.0 8 2   101.14     LegendNANA
09:00 13.8 10.3 79 0.0 9 4   101.18     LegendNANA
10:00 15.1 9.1 67 0.0 17 3   101.20     LegendNANA
11:00 15.6 8.8 64 0.0 11 3   101.18     LegendNANA
12:00 16.2 8.7 61 0.0 11 4   101.19     LegendNANA
13:00 16.5 9.1 61 0.0 11 3   101.19     LegendNANA
14:00 18.5 7.1 48 0.0 11 3   101.17     LegendNANA
15:00 18.2 6.6 47 0.0 9 5   101.18     LegendNANA
16:00 19.0 6.7 45 0.0 18 5   101.19     LegendNANA
17:00 17.5 6.6 49 0.0 21 4   101.18     LegendNANA
18:00 15.3 6.7 57 0.0 24 3   101.18     LegendNANA
19:00 13.9 7.3 64 0.0 25 4   101.18     LegendNANA
20:00 13.8 8.5 70 0.0 25 4   101.20     LegendNANA
21:00 12.7 8.8 77 0.0 26 3   101.22     LegendNANA
22:00 10.7 8.5 86 0.0 31 1   101.23     LegendNANA
23:00 9.8 8.2 90 0.0 5 1   101.25     LegendNANA

Notes on Data Quality.

Legend

  • E = Estimated
  • M = Missing
  • NA = Not Available*
  • [empty] = Indicates an unobserved value
Date modified: